Time,TemperatureF,DewpointF,PressureIn,WindDirection,WindDirectionDegrees,WindSpeedMPH,WindSpeedGustMPH,Humidity,HourlyPrecipIn,Conditions,Clouds,dailyrainin,SoftwareType,DateUTC
2013-09-24 00:01:00,44.6,41.3,30.08,West,280,1.0,6.0,88,0.00,FEW,,0.00,WeatherDisplay:10.37,2013-09-24 04:01:00,
2013-09-24 00:11:00,44.7,41.1,30.08,WNW,289,2.0,5.0,87,0.00,FEW,,0.00,WeatherDisplay:10.37,2013-09-24 04:11:00,
2013-09-24 00:31:00,44.5,40.9,30.08,West,272,2.0,3.0,87,0.00,FEW,,0.00,WeatherDisplay:10.37,2013-09-24 04:31:00,
2013-09-24 00:41:00,44.8,40.9,30.08,WNW,289,1.0,8.0,86,0.00,FEW,,0.00,WeatherDisplay:10.37,2013-09-24 04:41:00,
2013-09-24 00:51:00,44.9,40.6,30.08,WNW,297,2.0,5.0,85,0.00,FEW,,0.00,WeatherDisplay:10.37,2013-09-24 04:51:00,
2013-09-24 01:01:00,44.7,40.5,30.07,WNW,292,3.0,6.0,85,0.00,FEW,,0.00,WeatherDisplay:10.37,2013-09-24 05:01:00,
2013-09-24 01:11:00,44.6,40.4,30.07,WNW,286,3.0,6.0,85,0.00,FEW,,0.00,WeatherDisplay:10.37,2013-09-24 05:11:00,
2013-09-24 01:21:00,44.6,40.4,30.07,WNW,296,2.0,8.0,85,0.00,FEW,,0.00,WeatherDisplay:10.37,2013-09-24 05:21:00,
2013-09-24 01:31:00,44.3,40.4,30.07,NW,313,1.0,6.0,86,0.00,FEW,,0.00,WeatherDisplay:10.37,2013-09-24 05:31:00,
2013-09-24 01:41:00,44.1,40.2,30.07,WNW,285,3.0,6.0,86,0.00,FEW,,0.00,WeatherDisplay:10.37,2013-09-24 05:41:00,
2013-09-24 01:51:00,43.9,40.0,30.06,NW,323,0.0,5.0,86,0.00,FEW,,0.00,WeatherDisplay:10.37,2013-09-24 05:51:00,
2013-09-24 02:01:00,43.7,39.7,30.06,WNW,283,1.0,8.0,86,0.00,FEW,,0.00,WeatherDisplay:10.37,2013-09-24 06:01:00,
2013-09-24 02:11:00,43.4,39.8,30.06,WNW,294,1.0,5.0,87,0.00,FEW,,0.00,WeatherDisplay:10.37,2013-09-24 06:11:00,
2013-09-24 02:21:00,43.3,39.7,30.05,WNW,297,1.0,5.0,87,0.00,FEW,,0.00,WeatherDisplay:10.37,2013-09-24 06:21:00,
2013-09-24 02:31:00,42.8,39.5,30.05,WNW,302,0.0,3.0,88,0.00,FEW,,0.00,WeatherDisplay:10.37,2013-09-24 06:31:00,
2013-09-24 02:41:00,42.4,39.4,30.05,WNW,302,0.0,5.0,89,0.00,FEW,,0.00,WeatherDisplay:10.37,2013-09-24 06:41:00,
2013-09-24 02:51:00,41.9,38.8,30.05,WNW,302,0.0,0.0,89,0.00,FEW,,0.00,WeatherDisplay:10.37,2013-09-24 06:51:00,
2013-09-24 03:01:00,41.3,38.6,30.05,WNW,302,0.0,0.0,90,0.00,FEW,,0.00,WeatherDisplay:10.37,2013-09-24 07:01:00,
2013-09-24 03:11:00,41.0,38.6,30.05,WNW,302,0.0,0.0,91,0.00,FEW,,0.00,WeatherDisplay:10.37,2013-09-24 07:11:00,
2013-09-24 03:21:00,40.7,38.3,30.05,WNW,302,0.0,0.0,91,0.00,FEW,,0.00,WeatherDisplay:10.37,2013-09-24 07:21:00,
2013-09-24 03:31:00,40.3,37.9,30.05,WNW,302,0.0,0.0,91,0.00,FEW,,0.00,WeatherDisplay:10.37,2013-09-24 07:31:00,
2013-09-24 03:41:00,40.0,37.9,30.05,WNW,302,0.0,0.0,92,0.00,FEW,,0.00,WeatherDisplay:10.37,2013-09-24 07:41:00,
2013-09-24 03:51:00,39.7,37.6,30.05,WNW,302,0.0,0.0,92,0.00,FEW,,0.00,WeatherDisplay:10.37,2013-09-24 07:51:00,
2013-09-24 04:01:00,39.5,37.4,30.05,WNW,302,0.0,0.0,92,0.00,FEW,,0.00,WeatherDisplay:10.37,2013-09-24 08:01:00,
2013-09-24 04:11:00,39.4,37.3,30.05,WNW,302,0.0,0.0,92,0.00,CLR,,0.00,WeatherDisplay:10.37,2013-09-24 08:11:00,
2013-09-24 04:21:00,39.3,37.4,30.05,WNW,302,0.0,0.0,93,0.00,CLR,,0.00,WeatherDisplay:10.37,2013-09-24 08:21:00,
2013-09-24 04:31:00,39.1,37.2,30.05,WNW,302,0.0,0.0,93,0.00,CLR,,0.00,WeatherDisplay:10.37,2013-09-24 08:31:00,
2013-09-24 04:41:00,39.0,37.2,30.05,WNW,302,0.0,0.0,93,0.00,CLR,,0.00,WeatherDisplay:10.37,2013-09-24 08:41:00,
2013-09-24 04:51:00,38.9,37.0,30.05,WNW,302,0.0,0.0,93,0.00,CLR,,0.00,WeatherDisplay:10.37,2013-09-24 08:51:00,
2013-09-24 05:01:00,38.9,37.0,30.04,WNW,302,0.0,2.0,93,0.00,CLR,,0.00,WeatherDisplay:10.37,2013-09-24 09:01:00,
2013-09-24 05:11:00,38.8,36.9,30.05,WNW,302,0.0,0.0,93,0.00,CLR,,0.00,WeatherDisplay:10.37,2013-09-24 09:11:00,
2013-09-24 05:21:00,38.6,36.8,30.05,WNW,302,0.0,0.0,93,0.00,CLR,,0.00,WeatherDisplay:10.37,2013-09-24 09:21:00,
2013-09-24 05:31:00,38.4,36.6,30.05,WNW,302,0.0,0.0,93,0.00,CLR,,0.00,WeatherDisplay:10.37,2013-09-24 09:31:00,
2013-09-24 05:41:00,38.6,37.1,30.05,WNW,302,0.0,3.0,94,0.00,CLR,,0.00,WeatherDisplay:10.37,2013-09-24 09:41:00,
2013-09-24 05:51:00,38.8,37.2,30.05,WNW,302,0.0,2.0,94,0.00,CLR,,0.00,WeatherDisplay:10.37,2013-09-24 09:51:00,
2013-09-24 06:01:00,39.1,37.5,30.05,WNW,302,0.0,2.0,94,0.00,CLR,,0.00,WeatherDisplay:10.37,2013-09-24 10:01:00,
2013-09-24 06:11:00,39.4,37.8,30.05,WNW,302,0.0,2.0,94,0.00,CLR,,0.00,WeatherDisplay:10.37,2013-09-24 10:11:00,
2013-09-24 06:21:00,39.9,38.3,30.05,WNW,302,1.0,5.0,94,0.00,CLR,,0.00,WeatherDisplay:10.37,2013-09-24 10:21:00,
2013-09-24 06:31:00,40.7,39.1,30.05,WNW,292,2.0,6.0,94,0.00,CLR,,0.00,WeatherDisplay:10.37,2013-09-24 10:31:00,
2013-09-24 06:41:00,41.3,39.7,30.05,WNW,292,5.0,8.0,94,0.00,CLR,,0.00,WeatherDisplay:10.37,2013-09-24 10:41:00,
2013-09-24 06:51:00,41.5,39.9,30.05,WNW,289,0.0,5.0,94,0.00,CLR,,0.00,WeatherDisplay:10.37,2013-09-24 10:51:00,
2013-09-24 07:01:00,41.7,40.1,30.04,West,280,2.0,6.0,94,0.00,CLR,,0.00,WeatherDisplay:10.37,2013-09-24 11:01:00,
2013-09-24 07:11:00,42.1,40.3,30.04,WNW,301,1.0,6.0,93,0.00,FEW,,0.00,WeatherDisplay:10.37,2013-09-24 11:11:00,
2013-09-24 07:21:00,42.7,40.5,30.04,WNW,289,0.0,6.0,92,0.00,FEW,,0.00,WeatherDisplay:10.37,2013-09-24 11:21:00,
2013-09-24 07:31:00,43.6,41.2,30.04,WNW,295,0.0,6.0,91,0.00,FEW,,0.00,WeatherDisplay:10.37,2013-09-24 11:31:00,
2013-09-24 07:41:00,44.2,41.5,30.04,WSW,248,1.0,5.0,90,0.00,FEW,,0.00,WeatherDisplay:10.37,2013-09-24 11:41:00,
2013-09-24 07:51:00,44.8,41.4,30.04,West,280,1.0,8.0,88,0.00,FEW,,0.00,WeatherDisplay:10.37,2013-09-24 11:51:00,
2013-09-24 08:01:00,45.3,41.6,30.04,West,269,6.0,10.0,87,0.00,FEW,,0.00,WeatherDisplay:10.37,2013-09-24 12:01:00,
2013-09-24 08:11:00,45.9,41.6,30.04,WNW,302,6.0,9.0,85,0.00,BKN,,0.00,WeatherDisplay:10.37,2013-09-24 12:11:00,
2013-09-24 08:21:00,46.3,41.7,30.04,West,278,7.0,12.0,84,0.00,BKN,,0.00,WeatherDisplay:10.37,2013-09-24 12:21:00,
2013-09-24 08:31:00,47.1,42.2,30.03,WNW,303,3.0,14.0,83,0.00,BKN,,0.00,WeatherDisplay:10.37,2013-09-24 12:31:00,
2013-09-24 08:41:00,47.9,42.7,30.03,WNW,301,3.0,10.0,82,0.00,BKN,,0.00,WeatherDisplay:10.37,2013-09-24 12:41:00,
2013-09-24 08:51:00,48.3,42.7,30.03,WNW,300,7.0,10.0,81,0.00,BKN,,0.00,WeatherDisplay:10.37,2013-09-24 12:51:00,
2013-09-24 09:01:00,48.7,42.5,30.02,NW,308,8.0,12.0,79,0.00,SCT,,0.00,WeatherDisplay:10.37,2013-09-24 13:01:00,
2013-09-24 09:11:00,49.4,42.8,30.02,NW,321,7.0,15.0,78,0.00,SCT,,0.00,WeatherDisplay:10.37,2013-09-24 13:11:00,
2013-09-24 09:21:00,49.9,42.6,30.02,NW,319,8.0,18.0,76,0.00,SCT,,0.00,WeatherDisplay:10.37,2013-09-24 13:21:00,
2013-09-24 09:31:00,50.1,42.8,30.01,NW,304,13.0,16.0,76,0.00,SCT,,0.00,WeatherDisplay:10.37,2013-09-24 13:31:00,
2013-09-24 09:41:00,50.8,42.8,30.01,NW,315,9.0,16.0,74,0.00,SCT,,0.00,WeatherDisplay:10.37,2013-09-24 13:41:00,
2013-09-24 09:51:00,51.1,43.1,30.01,NW,318,10.0,16.0,74,0.00,SCT,,0.00,WeatherDisplay:10.37,2013-09-24 13:51:00,
2013-09-24 10:01:00,51.7,43.7,30.01,NW,310,7.0,14.0,74,0.00,SCT,,0.00,WeatherDisplay:10.37,2013-09-24 14:01:00,
2013-09-24 10:11:00,52.1,43.4,30.01,NNW,330,10.0,21.0,72,0.00,SCT,,0.00,WeatherDisplay:10.37,2013-09-24 14:11:00,
2013-09-24 10:21:00,52.2,43.5,30.01,WNW,303,12.0,16.0,72,0.00,SCT,,0.00,WeatherDisplay:10.37,2013-09-24 14:21:00,
2013-09-24 10:31:00,52.4,43.6,30.01,NW,317,5.0,20.0,72,0.00,SCT,,0.00,WeatherDisplay:10.37,2013-09-24 14:31:00,
2013-09-24 10:41:00,52.4,43.3,30.01,NW,324,5.0,18.0,71,0.00,SCT,,0.00,WeatherDisplay:10.37,2013-09-24 14:41:00,
2013-09-24 10:51:00,53.2,44.0,30.00,NNW,337,8.0,12.0,71,0.00,SCT,,0.00,WeatherDisplay:10.37,2013-09-24 14:51:00,
2013-09-24 11:01:00,53.5,44.0,30.00,West,261,10.0,14.0,70,0.00,SCT,,0.00,WeatherDisplay:10.37,2013-09-24 15:01:00,
2013-09-24 11:11:00,53.9,44.4,30.00,WNW,290,6.0,14.0,70,0.00,FEW,,0.00,WeatherDisplay:10.37,2013-09-24 15:11:00,
2013-09-24 11:21:00,54.3,44.4,30.00,NW,324,10.0,16.0,69,0.00,FEW,,0.00,WeatherDisplay:10.37,2013-09-24 15:21:00,
2013-09-24 11:31:00,54.8,44.1,30.00,NW,304,8.0,14.0,67,0.00,FEW,,0.00,WeatherDisplay:10.37,2013-09-24 15:31:00,
2013-09-24 11:41:00,55.4,45.0,29.99,NW,325,8.0,12.0,68,0.00,FEW,,0.00,WeatherDisplay:10.37,2013-09-24 15:41:00,
2013-09-24 11:51:00,55.6,44.4,29.99,West,277,8.0,16.0,66,0.00,FEW,,0.00,WeatherDisplay:10.37,2013-09-24 15:51:00,
2013-09-24 12:01:00,55.9,44.7,29.99,NNW,329,3.0,9.0,66,0.00,FEW,,0.00,WeatherDisplay:10.37,2013-09-24 16:01:00,
2013-09-24 12:11:00,56.6,45.4,29.98,NNW,328,10.0,12.0,66,0.00,FEW,,0.00,WeatherDisplay:10.37,2013-09-24 16:11:00,
2013-09-24 12:21:00,56.5,44.0,29.99,NNW,329,8.0,16.0,63,0.00,FEW,,0.00,WeatherDisplay:10.37,2013-09-24 16:21:00,
2013-09-24 12:31:00,57.2,44.3,29.98,NW,314,8.0,16.0,62,0.00,FEW,,0.00,WeatherDisplay:10.37,2013-09-24 16:31:00,
2013-09-24 12:41:00,58.0,44.6,29.98,NW,315,9.0,16.0,61,0.00,FEW,,0.00,WeatherDisplay:10.37,2013-09-24 16:41:00,
2013-09-24 12:51:00,58.5,45.1,29.98,WNW,302,7.0,14.0,61,0.00,FEW,,0.00,WeatherDisplay:10.37,2013-09-24 16:51:00,
2013-09-24 13:01:00,58.7,44.8,29.97,WNW,286,6.0,15.0,60,0.00,FEW,,0.00,WeatherDisplay:10.37,2013-09-24 17:01:00,
2013-09-24 13:11:00,59.3,45.4,29.96,WNW,285,13.0,16.0,60,0.00,CLR,,0.00,WeatherDisplay:10.37,2013-09-24 17:11:00,
2013-09-24 13:21:00,59.4,45.5,29.95,WNW,297,7.0,12.0,60,0.00,CLR,,0.00,WeatherDisplay:10.37,2013-09-24 17:21:00,
2013-09-24 13:31:00,59.9,45.5,29.95,NW,318,15.0,20.0,59,0.00,CLR,,0.00,WeatherDisplay:10.37,2013-09-24 17:31:00,
2013-09-24 13:41:00,60.6,46.2,29.94,NW,304,10.0,18.0,59,0.00,CLR,,0.00,WeatherDisplay:10.37,2013-09-24 17:41:00,
2013-09-24 13:51:00,61.0,46.1,29.94,NW,316,10.0,14.0,58,0.00,CLR,,0.00,WeatherDisplay:10.37,2013-09-24 17:51:00,
2013-09-24 14:01:00,61.1,45.7,29.93,West,278,3.0,15.0,57,0.00,CLR,,0.00,WeatherDisplay:10.37,2013-09-24 18:01:00,
2013-09-24 14:11:00,62.0,46.1,29.93,NW,312,3.0,18.0,56,0.00,CLR,,0.00,WeatherDisplay:10.37,2013-09-24 18:11:00,
2013-09-24 14:21:00,61.9,46.1,29.93,WNW,292,13.0,15.0,56,0.00,CLR,,0.00,WeatherDisplay:10.37,2013-09-24 18:21:00,
2013-09-24 14:31:00,62.6,47.1,29.92,WNW,298,3.0,12.0,57,0.00,CLR,,0.00,WeatherDisplay:10.37,2013-09-24 18:31:00,
2013-09-24 14:41:00,62.9,47.0,29.92,WNW,296,8.0,16.0,56,0.00,CLR,,0.00,WeatherDisplay:10.37,2013-09-24 18:41:00,
2013-09-24 14:51:00,63.9,46.9,29.92,NNW,337,6.0,12.0,54,0.00,CLR,,0.00,WeatherDisplay:10.37,2013-09-24 18:51:00,
2013-09-24 15:01:00,64.1,47.6,29.92,NW,324,1.0,14.0,55,0.00,CLR,,0.00,WeatherDisplay:10.37,2013-09-24 19:01:00,
2013-09-24 15:11:00,64.8,47.3,29.91,NW,321,9.0,12.0,53,0.00,FEW,,0.00,WeatherDisplay:10.37,2013-09-24 19:11:00,
2013-09-24 15:21:00,65.3,47.2,29.91,WNW,302,8.0,12.0,52,0.00,FEW,,0.00,WeatherDisplay:10.37,2013-09-24 19:21:00,
2013-09-24 15:31:00,65.4,47.3,29.90,WNW,289,9.0,18.0,52,0.00,FEW,,0.00,WeatherDisplay:10.37,2013-09-24 19:31:00,
2013-09-24 15:41:00,65.5,46.8,29.90,WNW,303,8.0,15.0,51,0.00,FEW,,0.00,WeatherDisplay:10.37,2013-09-24 19:41:00,
2013-09-24 15:51:00,66.0,47.4,29.90,WNW,301,2.0,10.0,51,0.00,FEW,,0.00,WeatherDisplay:10.37,2013-09-24 19:51:00,
2013-09-24 16:01:00,66.6,46.3,29.89,West,268,9.0,18.0,48,0.00,FEW,,0.00,WeatherDisplay:10.37,2013-09-24 20:01:00,
2013-09-24 16:11:00,67.0,47.2,29.89,WNW,283,3.0,18.0,49,0.00,FEW,,0.00,WeatherDisplay:10.37,2013-09-24 20:11:00,
2013-09-24 16:21:00,67.6,47.2,29.89,West,268,7.0,12.0,48,0.00,FEW,,0.00,WeatherDisplay:10.37,2013-09-24 20:21:00,
2013-09-24 16:31:00,67.6,48.3,29.89,NW,313,5.0,12.0,50,0.00,FEW,,0.00,WeatherDisplay:10.37,2013-09-24 20:31:00,
2013-09-24 16:41:00,66.5,46.8,29.89,WNW,290,5.0,14.0,49,0.00,FEW,,0.00,WeatherDisplay:10.37,2013-09-24 20:41:00,
2013-09-24 16:51:00,67.0,47.7,29.89,West,272,9.0,14.0,50,0.00,FEW,,0.00,WeatherDisplay:10.37,2013-09-24 20:51:00,
2013-09-24 17:01:00,66.8,47.6,29.89,WNW,294,2.0,12.0,50,0.00,FEW,,0.00,WeatherDisplay:10.37,2013-09-24 21:01:00,
2013-09-24 17:11:00,66.8,47.6,29.89,West,279,6.0,10.0,50,0.00,FEW,,0.00,WeatherDisplay:10.37,2013-09-24 21:11:00,
2013-09-24 17:21:00,66.3,47.6,29.88,WNW,285,6.0,14.0,51,0.00,FEW,,0.00,WeatherDisplay:10.37,2013-09-24 21:21:00,
2013-09-24 17:31:00,65.8,47.2,29.88,WNW,290,5.0,14.0,51,0.00,FEW,,0.00,WeatherDisplay:10.37,2013-09-24 21:31:00,
2013-09-24 17:41:00,64.6,47.1,29.88,West,273,3.0,12.0,53,0.00,FEW,,0.00,WeatherDisplay:10.37,2013-09-24 21:41:00,
2013-09-24 17:51:00,63.8,47.3,29.88,WNW,283,1.0,9.0,55,0.00,FEW,,0.00,WeatherDisplay:10.37,2013-09-24 21:51:00,
2013-09-24 18:01:00,63.4,47.9,29.88,WNW,301,2.0,6.0,57,0.00,FEW,,0.00,WeatherDisplay:10.37,2013-09-24 22:01:00,
2013-09-24 18:11:00,62.7,47.2,29.88,West,267,3.0,9.0,57,0.00,FEW,,0.00,WeatherDisplay:10.37,2013-09-24 22:11:00,
2013-09-24 18:21:00,62.0,47.0,29.88,WNW,282,3.0,8.0,58,0.00,FEW,,0.00,WeatherDisplay:10.37,2013-09-24 22:21:00,
2013-09-24 18:31:00,60.6,47.1,29.88,West,280,3.0,6.0,61,0.00,FEW,,0.00,WeatherDisplay:10.37,2013-09-24 22:31:00,
2013-09-24 18:41:00,59.5,47.3,29.89,WNW,302,1.0,6.0,64,0.00,FEW,,0.00,WeatherDisplay:10.37,2013-09-24 22:41:00,
2013-09-24 18:51:00,58.2,48.1,29.89,WSW,254,0.0,6.0,69,0.00,FEW,,0.00,WeatherDisplay:10.37,2013-09-24 22:51:00,
2013-09-24 19:01:00,57.2,47.5,29.89,SW,214,1.0,8.0,70,0.00,FEW,,0.00,WeatherDisplay:10.37,2013-09-24 23:01:00,
2013-09-24 19:11:00,58.2,47.6,29.90,WNW,285,6.0,10.0,68,0.00,FEW,,0.00,WeatherDisplay:10.37,2013-09-24 23:11:00,
2013-09-24 19:21:00,58.7,47.8,29.90,NW,313,3.0,10.0,67,0.00,FEW,,0.00,WeatherDisplay:10.37,2013-09-24 23:21:00,
2013-09-24 19:31:00,58.4,47.9,29.91,WNW,297,3.0,9.0,68,0.00,FEW,,0.00,WeatherDisplay:10.37,2013-09-24 23:31:00,
2013-09-24 19:41:00,58.5,48.4,29.91,WNW,287,10.0,15.0,69,0.00,FEW,,0.00,WeatherDisplay:10.37,2013-09-24 23:41:00,
2013-09-24 19:51:00,58.3,48.2,29.91,West,281,9.0,15.0,69,0.00,FEW,,0.00,WeatherDisplay:10.37,2013-09-24 23:51:00,
2013-09-24 20:01:00,58.0,47.9,29.92,WNW,296,9.0,18.0,69,0.00,FEW,,0.00,WeatherDisplay:10.37,2013-09-25 00:01:00,
2013-09-24 20:11:00,57.8,48.1,29.92,WNW,292,5.0,15.0,70,0.00,FEW,,0.00,WeatherDisplay:10.37,2013-09-25 00:11:00,
2013-09-24 20:21:00,57.6,47.9,29.92,WNW,296,7.0,15.0,70,0.00,FEW,,0.00,WeatherDisplay:10.37,2013-09-25 00:21:00,
2013-09-24 20:31:00,57.2,47.9,29.92,WNW,301,6.0,15.0,71,0.00,FEW,,0.00,WeatherDisplay:10.37,2013-09-25 00:31:00,
2013-09-24 20:41:00,56.9,47.9,29.93,WNW,284,6.0,15.0,72,0.00,FEW,,0.00,WeatherDisplay:10.37,2013-09-25 00:41:00,
2013-09-24 21:01:00,56.2,47.7,29.94,NW,307,7.0,12.0,73,0.00,FEW,,0.00,WeatherDisplay:10.37,2013-09-25 01:01:00,
2013-09-24 21:11:00,55.9,47.7,29.94,WNW,302,8.0,12.0,74,0.00,CLR,,0.00,WeatherDisplay:10.37,2013-09-25 01:11:00,
2013-09-24 21:21:00,55.7,47.9,29.95,WNW,288,9.0,16.0,75,0.00,CLR,,0.00,WeatherDisplay:10.37,2013-09-25 01:21:00,
2013-09-24 21:31:00,55.4,47.6,29.95,WNW,292,7.0,12.0,75,0.00,CLR,,0.00,WeatherDisplay:10.37,2013-09-25 01:31:00,
2013-09-24 21:41:00,55.0,47.6,29.95,WNW,303,6.0,12.0,76,0.00,CLR,,0.00,WeatherDisplay:10.37,2013-09-25 01:41:00,
2013-09-24 21:51:00,54.8,47.7,29.95,WNW,282,2.0,14.0,77,0.00,CLR,,0.00,WeatherDisplay:10.37,2013-09-25 01:51:00,
2013-09-24 22:01:00,54.3,47.6,29.96,West,276,2.0,9.0,78,0.00,CLR,,0.00,WeatherDisplay:10.37,2013-09-25 02:01:00,
2013-09-24 22:11:00,53.9,47.5,29.97,West,281,3.0,8.0,79,0.00,CLR,,0.00,WeatherDisplay:10.37,2013-09-25 02:11:00,
2013-09-24 22:21:00,53.6,47.3,29.97,WNW,295,2.0,9.0,79,0.00,CLR,,0.00,WeatherDisplay:10.37,2013-09-25 02:21:00,
2013-09-24 22:31:00,52.9,46.9,29.97,WNW,299,1.0,5.0,80,0.00,CLR,,0.00,WeatherDisplay:10.37,2013-09-25 02:31:00,
2013-09-24 22:41:00,53.0,47.0,29.97,WNW,287,2.0,8.0,80,0.00,CLR,,0.00,WeatherDisplay:10.37,2013-09-25 02:41:00,
2013-09-24 22:51:00,53.0,46.7,29.96,WNW,298,3.0,6.0,79,0.00,CLR,,0.00,WeatherDisplay:10.37,2013-09-25 02:51:00,
2013-09-24 23:01:00,52.9,46.6,29.97,NW,309,5.0,9.0,79,0.00,CLR,,0.00,WeatherDisplay:10.37,2013-09-25 03:01:00,
2013-09-24 23:11:00,52.7,46.7,29.97,NW,307,7.0,12.0,80,0.00,CLR,,0.00,WeatherDisplay:10.37,2013-09-25 03:11:00,
2013-09-24 23:21:00,52.5,46.5,29.97,West,279,3.0,8.0,80,0.00,CLR,,0.00,WeatherDisplay:10.37,2013-09-25 03:21:00,
2013-09-24 23:31:00,52.0,46.3,29.97,WNW,289,3.0,9.0,81,0.00,CLR,,0.00,WeatherDisplay:10.37,2013-09-25 03:31:00,
2013-09-24 23:41:00,51.9,46.3,29.97,West,280,5.0,9.0,81,0.00,CLR,,0.00,WeatherDisplay:10.37,2013-09-25 03:41:00,
2013-09-24 23:51:00,51.4,45.7,29.97,WNW,283,1.0,9.0,81,0.00,CLR,,0.00,WeatherDisplay:10.37,2013-09-25 03:51:00,